Temp
-13 -13 -13 -13 -13 -13 -13 -13 -13 -13 -12 -12 -11 -11 -11 -11 -11 -10 -10 -10 -9 -9 -8 -8 -8 -8 -7 -7 -7 -6 -6 -6 -6 -6 -6 -6 -6 -6 -6 -6 -6 -6 -6 -6 -6 -5 -5 -5 -5 -4 -4 -4 -3 -3 -3 -3 -3 -2 -2 -2 -2 -2 -2
-13 -14 -14 -14 -13 -13 -13 -13 -13 -14 -14 -13 -13 -12 -12 -12 -11 -11 -10 -10 -10 -9 -9 -9 -8 -8 -8 -8 -7 -7 -7 -6 -6 -6 -6 -6 -7 -6 -6 -6 -7 -7 -7 -6 -6 -6 -6 -5 -5 -5 -4 -4 -4 -4 -4 -3 -3 -3 -3 -3 -3 -3 -2
-14 -14 -14 -14 -14 -14 -14 -14 -14 -14 -14 -14 -14 -14 -13 -12 -12 -12 -12 -11 -11 -10 -10 -10 -9 -9 -9 -8 -8 -8 -7 -7 -7 -7 -7 -7 -7 -7 -7 -7 -7 -7 -7 -7 -7 -6 -6 -6 -6 -5 -5 -5 -4 -4 -4 -4 -4 -4 -4 -4 -4 -4 -3
-14 -14 -14 -14 -14 -14 -14 -14 -14 -14 -14 -15 -15 -15 -14 -13 -13 -13 -13 -13 -12 -12 -11 -11 -10 -10 -9 -9 -9 -8 -8 -8 -7 -7 -7 -7 -7 -7 -7 -7 -7 -7 -7 -7 -7 -7 -7 -6 -6 -6 -6 -5 -5 -5 -5 -5 -5 -5 -5 -5 -5 -4 -4
-14 -14 -14 -15 -15 -14 -14 -15 -15 -15 -15 -15 -15 -15 -15 -15 -14 -14 -14 -14 -14 -14 -13 -12 -12 -11 -10 -10 -10 -9 -9 -8 -8 -8 -8 -8 -7 -7 -7 -7 -7 -7 -7 -7 -7 -7 -7 -7 -7 -7 -6 -6 -6 -6 -6 -6 -6 -6 -6 -6 -6 -5 -5
-14 -15 -15 -15 -15 -15 -15 -15 -15 -15 -15 -16 -16 -16 -16 -16 -15 -15 -15 -15 -15 -14 -14 -13 -12 -12 -11 -11 -10 -10 -10 -9 -9 -9 -8 -8 -8 -8 -8 -8 -8 -8 -7 -7 -8 -8 -8 -8 -8 -8 -7 -7 -7 -7 -7 -7 -7 -7 -7 -7 -7 -6 -6
-15 -15 -15 -15 -15 -15 -15 -15 -16 -16 -16 -16 -16 -16 -16 -16 -17 -17 -16 -15 -15 -14 -14 -14 -13 -13 -12 -12 -11 -11 -11 -10 -10 -10 -9 -9 -9 -9 -8 -8 -8 -8 -8 -8 -8 -8 -8 -8 -8 -8 -8 -8 -8 -8 -8 -8 -8 -8 -7 -7 -7 -7 -7
-15 -15 -15 -16 -16 -16 -16 -16 -16 -16 -17 -17 -17 -17 -17 -17 -17 -17 -16 -16 -15 -15 -14 -14 -14 -13 -13 -13 -12 -12 -12 -11 -11 -11 -10 -10 -10 -10 -9 -9 -9 -9 -9 -9 -9 -9 -9 -9 -9 -9 -9 -9 -9 -9 -9 -9 -9 -9 -8 -8 -8 -8 -8
-16 -16 -16 -16 -16 -16 -16 -16 -16 -17 -17 -18 -17 -18 -18 -17 -17 -17 -16 -16 -16 -16 -15 -15 -15 -14 -14 -14 -13 -13 -12 -12 -12 -12 -12 -11 -11 -11 -11 -10 -10 -10 -10 -10 -10 -10 -10 -10 -10 -11 -11 -10 -10 -10 -10 -10 -10 -10 -9 -9 -9 -9 -8
-16 -16 -16 -17 -17 -17 -17 -17 -17 -18 -18 -18 -18 -18 -18 -17 -17 -17 -17 -16 -16 -16 -16 -16 -15 -15 -15 -14 -14 -14 -14 -13 -13 -13 -13 -12 -12 -12 -12 -11 -11 -11 -11 -11 -11 -11 -11 -11 -11 -12 -12 -11 -11 -11 -11 -11 -10 -10 -10 -10 -10 -9 -9
-16 -17 -17 -17 -17 -17 -17 -17 -17 -18 -18 -19 -19 -18 -18 -17 -17 -17 -17 -17 -16 -16 -16 -16 -16 -16 -16 -15 -15 -15 -15 -15 -14 -14 -14 -13 -13 -13 -13 -12 -12 -12 -12 -11 -12 -12 -12 -12 -13 -13 -13 -12 -12 -11 -11 -11 -11 -11 -11 -11 -11 -11 -10
-17 -17 -17 -17 -17 -17 -17 -18 -18 -19 -19 -19 -19 -18 -18 -18 -18 -17 -17 -17 -17 -17 -17 -17 -16 -16 -16 -16 -16 -16 -15 -15 -15 -15 -14 -14 -14 -14 -14 -14 -13 -13 -13 -13 -13 -13 -13 -13 -13 -14 -14 -13 -13 -13 -12 -12 -12 -11 -12 -12 -12 -11 -11
-17 -18 -18 -18 -18 -18 -18 -18 -19 -19 -19 -19 -19 -18 -18 -18 -18 -18 -18 -18 -17 -17 -17 -17 -17 -17 -17 -17 -17 -17 -17 -16 -16 -16 -16 -16 -16 -16 -15 -15 -15 -14 -14 -14 -13 -14 -14 -14 -14 -14 -15 -14 -14 -14 -13 -13 -12 -12 -12 -12 -12 -12 -11
-18 -18 -18 -18 -18 -19 -19 -19 -19 -20 -20 -20 -19 -19 -18 -19 -19 -19 -19 -18 -18 -18 -18 -18 -18 -18 -18 -18 -18 -18 -18 -18 -17 -17 -17 -17 -17 -16 -16 -16 -16 -15 -15 -15 -15 -15 -15 -15 -15 -15 -15 -15 -15 -15 -14 -14 -14 -13 -13 -13 -12 -12 -12
-19 -19 -19 -19 -19 -19 -20 -20 -20 -20 -20 -20 -20 -19 -19 -19 -19 -19 -19 -19 -19 -20 -20 -20 -19 -19 -19 -19 -19 -19 -19 -19 -19 -18 -18 -17 -17 -17 -17 -17 -16 -16 -17 -17 -16 -16 -16 -16 -16 -16 -17 -17 -16 -15 -15 -15 -15 -15 -14 -13 -13 -13 -12
-19 -19 -20 -20 -20 -20 -20 -20 -21 -21 -21 -21 -20 -19 -20 -20 -20 -20 -20 -20 -20 -21 -21 -20 -20 -20 -19 -19 -19 -19 -20 -20 -20 -19 -18 -18 -17 -17 -17 -17 -17 -17 -17 -17 -17 -17 -17 -17 -17 -17 -18 -18 -17 -16 -16 -16 -16 -16 -16 -15 -14 -14 -13
-20 -20 -20 -20 -21 -21 -21 -21 -21 -21 -21 -21 -20 -20 -20 -20 -20 -20 -20 -20 -21 -21 -21 -21 -20 -20 -20 -20 -20 -20 -21 -21 -21 -20 -18 -18 -17 -17 -17 -17 -17 -17 -18 -18 -18 -18 -18 -18 -18 -18 -18 -18 -18 -17 -17 -17 -17 -17 -17 -16 -16 -15 -15
-20 -21 -21 -21 -21 -21 -21 -21 -22 -21 -21 -21 -21 -20 -20 -21 -21 -21 -21 -21 -21 -21 -21 -21 -20 -20 -21 -21 -21 -21 -22 -22 -21 -19 -18 -18 -17 -17 -17 -17 -17 -17 -18 -18 -18 -18 -18 -18 -18 -18 -18 -18 -18 -18 -17 -17 -18 -18 -17 -17 -17 -16 -16
-21 -21 -21 -22 -22 -22 -22 -22 -22 -22 -21 -21 -21 -21 -21 -21 -21 -21 -21 -21 -21 -21 -21 -21 -21 -21 -21 -21 -22 -22 -22 -22 -21 -19 -19 -19 -18 -18 -18 -18 -17 -18 -18 -18 -18 -18 -18 -18 -18 -18 -18 -18 -18 -18 -18 -18 -18 -18 -18 -18 -18 -17 -17
-21 -21 -22 -22 -22 -22 -22 -22 -22 -22 -22 -21 -21 -21 -22 -22 -22 -22 -22 -22 -22 -21 -22 -21 -21 -21 -21 -22 -23 -23 -23 -24 -22 -20 -20 -20 -19 -19 -19 -19 -18 -18 -18 -18 -18 -18 -18 -18 -18 -18 -18 -18 -18 -18 -18 -18 -18 -19 -19 -19 -19 -18 -18
-22 -22 -22 -22 -22 -22 -22 -22 -22 -22 -22 -22 -22 -22 -22 -22 -22 -22 -22 -22 -22 -22 -22 -22 -22 -22 -22 -22 -23 -23 -24 -24 -23 -21 -21 -21 -20 -20 -20 -20 -19 -19 -19 -19 -19 -19 -19 -19 -19 -19 -19 -19 -19 -19 -19 -19 -20 -20 -20 -20 -20 -20 -20
-22 -22 -22 -22 -22 -22 -23 -22 -22 -22 -22 -22 -22 -23 -23 -22 -23 -22 -22 -22 -23 -22 -22 -22 -22 -22 -23 -24 -24 -24 -24 -24 -23 -22 -22 -22 -21 -21 -21 -21 -21 -20 -20 -20 -20 -20 -20 -20 -20 -20 -20 -20 -20 -20 -20 -20 -20 -21 -21 -21 -21 -21 -21
-23 -23 -23 -23 -23 -23 -23 -23 -23 -23 -23 -23 -23 -24 -24 -23 -23 -23 -23 -23 -23 -23 -23 -23 -23 -23 -24 -25 -25 -24 -24 -23 -22 -22 -22 -22 -22 -22 -22 -21 -21 -21 -21 -21 -21 -21 -20 -20 -20 -20 -20 -20 -20 -20 -20 -20 -20 -20 -21 -21 -22 -22 -22
-23 -23 -23 -23 -23 -23 -23 -23 -23 -23 -23 -23 -23 -24 -25 -24 -23 -23 -23 -23 -23 -23 -23 -23 -23 -24 -24 -24 -24 -23 -23 -23 -23 -22 -22 -22 -22 -22 -22 -22 -22 -22 -21 -21 -21 -21 -21 -21 -20 -20 -21 -21 -20 -20 -20 -21 -21 -21 -21 -21 -22 -22 -23
-23 -23 -23 -23 -23 -23 -23 -24 -24 -23 -23 -23 -23 -24 -24 -24 -23 -23 -23 -23 -23 -23 -23 -23 -23 -23 -23 -23 -23 -23 -23 -23 -23 -23 -22 -22 -22 -22 -22 -22 -22 -22 -22 -22 -21 -21 -21 -21 -21 -21 -21 -21 -21 -21 -21 -21 -22 -22 -22 -22 -22 -22 -23
-23 -23 -24 -24 -24 -24 -24 -24 -24 -24 -24 -24 -24 -24 -24 -24 -24 -24 -23 -23 -23 -23 -24 -23 -23 -23 -23 -23 -23 -23 -23 -23 -23 -23 -22 -22 -22 -22 -22 -22 -22 -22 -22 -22 -22 -21 -22 -22 -22 -22 -22 -22 -22 -22 -22 -21 -21 -21 -21 -22 -22 -22 -22
-24 -24 -24 -24 -24 -24 -24 -24 -24 -24 -25 -24 -24 -24 -24 -24 -24 -24 -24 -24 -24 -24 -24 -24 -23 -23 -23 -23 -23 -23 -23 -23 -23 -23 -23 -23 -23 -22 -22 -22 -22 -22 -22 -22 -22 -22 -22 -23 -23 -23 -23 -23 -23 -22 -22 -22 -22 -22 -22 -22 -22 -22 -22
-24 -24 -24 -25 -25 -25 -25 -25 -25 -25 -25 -25 -25 -25 -24 -24 -24 -24 -24 -24 -24 -24 -24 -24 -24 -24 -24 -23 -23 -23 -23 -23 -23 -23 -23 -23 -23 -23 -23 -22 -22 -22 -23 -23 -22 -23 -23 -23 -23 -23 -23 -23 -23 -23 -23 -23 -23 -23 -23 -23 -23 -23 -23
-25 -25 -25 -25 -25 -25 -25 -25 -25 -25 -26 -26 -26 -25 -25 -24 -24 -25 -24 -24 -24 -24 -24 -24 -24 -24 -24 -23 -23 -23 -24 -24 -24 -23 -23 -23 -23 -23 -23 -23 -23 -23 -23 -23 -23 -23 -23 -23 -23 -23 -23 -23 -23 -23 -23 -24 -24 -24 -24 -24 -24 -24 -25
-25 -25 -25 -25 -25 -25 -24 -24 -25 -25 -26 -26 -26 -26 -25 -24 -24 -25 -25 -24 -24 -24 -24 -24 -24 -24 -24 -24 -24 -24 -24 -24 -24 -24 -23 -23 -23 -23 -23 -23 -23 -23 -23 -23 -23 -24 -24 -24 -24 -24 -24 -24 -24 -24 -24 -25 -25 -25 -25 -25 -26 -26 -26
-25 -26 -26 -25 -25 -25 -24 -24 -25 -26 -26 -26 -26 -27 -27 -25 -24 -25 -25 -24 -24 -24 -24 -24 -24 -24 -24 -24 -24 -24 -24 -24 -24 -24 -24 -24 -24 -24 -24 -24 -24 -24 -24 -24 -24 -24 -24 -24 -24 -25 -25 -25 -25 -25 -25 -25 -26 -26 -26 -26 -27 -27 -27
-25 -26 -26 -26 -26 -25 -25 -25 -26 -26 -26 -27 -26 -26 -26 -26 -25 -25 -25 -25 -24 -25 -24 -24 -24 -24 -24 -24 -24 -24 -24 -24 -24 -24 -24 -24 -24 -24 -24 -25 -25 -25 -25 -25 -25 -25 -25 -25 -25 -25 -26 -26 -26 -26 -26 -26 -26 -26 -26 -27 -27 -28 -28
-25 -26 -26 -26 -26 -26 -26 -26 -26 -26 -26 -26 -26 -25 -25 -26 -25 -25 -25 -25 -24 -24 -24 -24 -24 -24 -24 -24 -24 -24 -24 -24 -24 -25 -25 -25 -25 -25 -25 -25 -25 -26 -26 -26 -26 -26 -26 -26 -26 -26 -26 -26 -27 -27 -27 -27 -27 -27 -27 -28 -28 -29 -29
-25 -25 -26 -26 -26 -26 -26 -26 -26 -26 -26 -26 -26 -25 -25 -25 -25 -25 -25 -24 -24 -24 -24 -24 -24 -24 -24 -25 -24 -24 -25 -25 -25 -25 -25 -25 -25 -25 -26 -26 -26 -26 -26 -26 -26 -26 -26 -26 -26 -26 -27 -27 -27 -27 -27 -28 -28 -28 -28 -29 -29 -30 -30
-25 -25 -25 -25 -26 -26 -26 -26 -26 -26 -25 -25 -25 -25 -25 -25 -25 -25 -25 -24 -24 -24 -24 -24 -24 -25 -25 -25 -25 -25 -25 -25 -25 -25 -25 -25 -25 -26 -26 -26 -26 -26 -26 -26 -26 -26 -26 -27 -27 -27 -27 -27 -27 -28 -28 -28 -28 -28 -28 -29 -30 -30 -30
-25 -24 -25 -25 -25 -25 -25 -25 -25 -25 -25 -25 -25 -25 -24 -24 -25 -25 -24 -24 -24 -24 -24 -24 -25 -25 -25 -25 -25 -25 -25 -25 -25 -25 -25 -25 -25 -26 -26 -26 -26 -26 -26 -26 -26 -26 -26 -27 -27 -27 -27 -27 -27 -27 -28 -28 -28 -28 -29 -29 -30 -30 -30
Height
1460 1458 1456 1454 1452 1450 1447 1445 1443 1442 1442 1441 1440 1438 1437 1436 1435 1434 1434 1433 1433 1433 1433 1432 1432 1432 1432 1432 1431 1432 1432 1432 1432 1433 1434 1435 1436 1437 1438 1439 1440 1439 1438 1439 1442 1443 1445 1447 1448 1449 1450 1451 1452 1454 1455 1456 1457 1458 1459 1460 1461 1462 1463
1457 1455 1454 1452 1450 1448 1446 1444 1441 1439 1439 1438 1437 1435 1434 1433 1432 1431 1430 1430 1430 1430 1430 1429 1428 1428 1428 1428 1428 1429 1429 1429 1430 1430 1430 1431 1432 1433 1434 1435 1436 1436 1435 1436 1438 1440 1442 1444 1445 1446 1447 1448 1449 1450 1452 1452 1453 1454 1455 1456 1457 1458 1459
1454 1453 1451 1449 1448 1446 1444 1442 1440 1438 1436 1435 1433 1432 1431 1430 1429 1428 1428 1427 1426 1426 1426 1426 1425 1425 1425 1425 1425 1426 1426 1426 1427 1427 1427 1428 1429 1429 1430 1431 1432 1433 1433 1433 1435 1437 1439 1440 1442 1443 1444 1444 1445 1446 1448 1449 1450 1451 1451 1452 1453 1453 1454
1451 1449 1448 1447 1445 1443 1441 1439 1437 1435 1434 1432 1431 1429 1428 1428 1427 1426 1425 1424 1424 1424 1423 1423 1422 1422 1422 1422 1422 1422 1423 1423 1423 1424 1424 1425 1426 1426 1427 1428 1429 1430 1430 1430 1432 1433 1435 1436 1438 1439 1439 1441 1441 1442 1444 1445 1446 1447 1447 1448 1449 1449 1449
1448 1446 1445 1443 1442 1440 1438 1436 1434 1433 1431 1430 1428 1427 1425 1425 1424 1424 1423 1423 1422 1422 1421 1421 1420 1419 1419 1419 1419 1419 1419 1420 1420 1420 1421 1421 1422 1423 1423 1424 1425 1426 1427 1427 1428 1429 1431 1432 1433 1434 1435 1437 1438 1439 1440 1441 1441 1442 1443 1443 1444 1444 1445
1445 1443 1441 1440 1438 1437 1435 1433 1432 1430 1428 1427 1426 1425 1423 1422 1422 1422 1422 1421 1421 1420 1420 1419 1418 1417 1417 1416 1416 1416 1416 1417 1417 1417 1418 1418 1419 1419 1420 1421 1422 1423 1424 1424 1425 1426 1427 1428 1429 1430 1431 1433 1434 1434 1435 1436 1437 1438 1438 1439 1439 1440 1440
1442 1440 1438 1437 1435 1433 1432 1430 1429 1427 1425 1424 1423 1422 1421 1421 1420 1420 1420 1420 1419 1418 1418 1417 1416 1415 1415 1414 1414 1414 1414 1414 1414 1414 1414 1415 1415 1416 1417 1417 1418 1419 1420 1421 1421 1422 1423 1423 1425 1426 1427 1428 1429 1430 1431 1431 1432 1432 1433 1434 1434 1434 1435
1439 1437 1435 1434 1432 1430 1428 1427 1425 1424 1423 1422 1421 1420 1419 1419 1419 1418 1418 1418 1417 1416 1416 1414 1414 1413 1413 1413 1412 1412 1412 1411 1411 1411 1412 1412 1412 1413 1413 1414 1414 1415 1416 1417 1418 1418 1419 1419 1421 1421 1422 1423 1425 1426 1426 1427 1427 1427 1427 1429 1429 1429 1430
1436 1434 1432 1430 1429 1427 1425 1423 1422 1421 1420 1419 1419 1418 1418 1417 1417 1416 1416 1416 1415 1414 1414 1412 1412 1411 1411 1411 1410 1410 1410 1409 1409 1409 1409 1409 1410 1410 1410 1411 1411 1412 1413 1413 1414 1415 1415 1416 1417 1418 1419 1420 1421 1421 1422 1423 1423 1422 1423 1424 1424 1424 1425
1432 1431 1429 1427 1425 1423 1422 1420 1419 1418 1418 1417 1417 1417 1416 1415 1415 1414 1414 1413 1413 1412 1411 1411 1410 1410 1409 1409 1408 1408 1408 1407 1407 1407 1407 1408 1408 1408 1408 1408 1409 1410 1410 1411 1412 1412 1413 1413 1414 1414 1415 1416 1417 1417 1418 1418 1419 1419 1419 1420 1419 1419 1421
1429 1427 1426 1424 1422 1420 1418 1417 1416 1415 1415 1415 1415 1415 1414 1413 1413 1412 1412 1411 1410 1410 1409 1409 1408 1408 1407 1407 1406 1406 1406 1405 1405 1405 1406 1406 1406 1406 1406 1406 1407 1407 1408 1409 1409 1410 1410 1410 1411 1412 1412 1412 1413 1414 1415 1415 1416 1416 1416 1416 1416 1415 1417
1425 1424 1422 1420 1419 1417 1415 1414 1413 1413 1413 1413 1414 1414 1412 1411 1410 1410 1410 1409 1409 1408 1407 1407 1406 1406 1405 1405 1404 1404 1404 1404 1403 1403 1404 1404 1404 1404 1404 1404 1404 1405 1406 1406 1407 1407 1408 1408 1408 1409 1409 1409 1410 1411 1412 1412 1413 1413 1413 1413 1413 1413 1413
1421 1420 1418 1417 1415 1413 1412 1411 1410 1410 1410 1411 1412 1412 1410 1409 1408 1408 1408 1408 1407 1407 1405 1405 1404 1404 1403 1403 1403 1402 1402 1401 1401 1401 1401 1401 1402 1402 1403 1403 1403 1403 1403 1404 1404 1405 1405 1405 1406 1406 1406 1406 1407 1407 1408 1409 1409 1410 1410 1409 1410 1410 1410
1417 1416 1415 1413 1411 1410 1409 1408 1408 1408 1408 1409 1411 1410 1408 1407 1406 1406 1406 1405 1404 1404 1403 1402 1402 1402 1402 1401 1401 1400 1400 1399 1398 1398 1398 1399 1400 1400 1401 1401 1401 1401 1401 1401 1402 1402 1403 1403 1403 1403 1403 1403 1403 1403 1404 1404 1405 1406 1406 1406 1406 1407 1407
1413 1412 1411 1409 1408 1406 1406 1405 1405 1405 1406 1407 1408 1408 1406 1405 1404 1403 1403 1402 1401 1400 1400 1400 1400 1400 1400 1400 1399 1399 1399 1397 1395 1395 1396 1397 1398 1398 1399 1399 1398 1398 1399 1399 1400 1400 1401 1401 1401 1401 1400 1400 1399 1400 1400 1401 1401 1402 1402 1402 1402 1403 1404
1409 1408 1407 1406 1405 1404 1403 1403 1403 1403 1404 1405 1406 1406 1404 1403 1402 1401 1400 1399 1398 1398 1398 1398 1399 1398 1398 1398 1398 1398 1397 1394 1393 1394 1394 1395 1396 1396 1396 1396 1396 1397 1397 1397 1398 1398 1398 1398 1398 1398 1397 1396 1395 1396 1397 1398 1398 1398 1398 1398 1398 1398 1399
1406 1405 1404 1403 1402 1402 1401 1401 1401 1401 1402 1403 1404 1403 1402 1401 1400 1399 1398 1398 1397 1397 1398 1398 1398 1398 1397 1397 1397 1397 1394 1392 1391 1392 1393 1393 1393 1393 1394 1395 1395 1395 1395 1395 1395 1395 1395 1395 1394 1395 1395 1394 1393 1392 1393 1394 1394 1394 1394 1394 1394 1393 1394
1403 1402 1401 1401 1400 1400 1399 1400 1400 1400 1400 1401 1401 1401 1399 1399 1398 1398 1397 1396 1396 1396 1397 1397 1397 1397 1396 1396 1396 1396 1392 1390 1390 1391 1391 1390 1390 1391 1392 1393 1393 1393 1393 1393 1393 1392 1392 1392 1392 1392 1392 1391 1390 1389 1389 1390 1390 1390 1390 1390 1390 1389 1388
1400 1400 1399 1398 1398 1398 1398 1398 1399 1399 1399 1400 1399 1398 1397 1397 1397 1396 1396 1396 1395 1395 1395 1395 1395 1395 1395 1395 1395 1395 1391 1387 1387 1389 1389 1388 1388 1389 1390 1390 1390 1390 1390 1390 1390 1390 1390 1390 1389 1390 1389 1389 1389 1388 1387 1387 1387 1386 1386 1386 1387 1386 1385
1398 1397 1397 1397 1397 1397 1397 1397 1397 1398 1398 1398 1397 1396 1396 1395 1395 1395 1395 1395 1394 1394 1394 1394 1394 1394 1394 1394 1393 1393 1391 1387 1385 1386 1387 1386 1386 1387 1388 1387 1387 1387 1387 1387 1387 1387 1387 1387 1387 1387 1387 1387 1387 1386 1385 1385 1384 1384 1383 1383 1383 1383 1383
1396 1396 1396 1395 1395 1395 1395 1396 1397 1397 1398 1398 1396 1394 1394 1394 1393 1394 1394 1393 1393 1392 1392 1392 1392 1392 1392 1392 1391 1391 1389 1387 1385 1385 1385 1384 1384 1385 1385 1385 1385 1385 1385 1385 1385 1384 1384 1384 1384 1384 1384 1384 1384 1383 1383 1382 1382 1381 1381 1380 1380 1380 1379
1395 1395 1394 1394 1394 1394 1394 1395 1396 1396 1397 1397 1396 1393 1392 1392 1392 1392 1392 1392 1391 1390 1390 1390 1390 1390 1390 1390 1389 1388 1387 1385 1385 1384 1384 1383 1383 1383 1383 1383 1383 1383 1383 1383 1383 1382 1382 1382 1382 1382 1381 1381 1381 1381 1381 1380 1380 1379 1378 1378 1377 1376 1375
1393 1393 1393 1393 1393 1393 1394 1394 1395 1396 1396 1396 1395 1393 1390 1389 1390 1390 1390 1390 1389 1389 1388 1388 1388 1388 1388 1387 1386 1385 1385 1384 1384 1383 1383 1382 1382 1382 1382 1382 1381 1381 1381 1381 1381 1381 1381 1380 1380 1379 1379 1379 1379 1378 1378 1378 1378 1377 1377 1376 1376 1375 1373
1392 1393 1393 1393 1393 1393 1393 1393 1394 1394 1395 1395 1394 1392 1389 1388 1388 1389 1389 1388 1387 1386 1386 1385 1386 1386 1385 1385 1384 1384 1383 1383 1382 1382 1382 1381 1381 1381 1380 1380 1380 1380 1380 1380 1380 1379 1379 1378 1378 1377 1377 1376 1376 1375 1375 1375 1375 1374 1374 1374 1373 1373 1372
1392 1392 1392 1392 1392 1392 1392 1392 1392 1393 1393 1393 1392 1391 1388 1387 1387 1387 1387 1386 1386 1385 1384 1384 1384 1384 1384 1383 1383 1383 1382 1382 1382 1381 1381 1381 1380 1380 1380 1380 1379 1379 1379 1379 1378 1378 1377 1377 1376 1376 1375 1374 1373 1373 1372 1373 1372 1372 1371 1371 1370 1371 1370
1391 1391 1391 1391 1391 1391 1391 1391 1391 1391 1391 1391 1391 1389 1388 1387 1386 1386 1385 1385 1384 1384 1383 1383 1383 1383 1383 1383 1382 1382 1382 1381 1381 1381 1380 1380 1380 1379 1379 1379 1378 1378 1378 1377 1377 1376 1376 1375 1375 1374 1374 1373 1372 1371 1370 1370 1369 1369 1368 1367 1366 1367 1367
1391 1391 1391 1391 1391 1390 1390 1390 1389 1389 1389 1389 1389 1388 1387 1386 1385 1385 1384 1384 1383 1383 1382 1382 1382 1382 1382 1382 1382 1382 1381 1381 1380 1380 1379 1379 1379 1378 1378 1377 1377 1377 1376 1376 1375 1375 1375 1374 1374 1374 1373 1372 1371 1370 1368 1367 1366 1365 1364 1363 1362 1361 1361
1390 1390 1390 1390 1390 1389 1389 1388 1388 1388 1388 1387 1387 1386 1385 1385 1384 1383 1383 1383 1382 1382 1382 1382 1382 1382 1382 1381 1381 1381 1381 1380 1380 1379 1379 1378 1378 1377 1377 1376 1376 1375 1375 1375 1375 1374 1374 1374 1373 1373 1372 1371 1370 1368 1367 1366 1364 1363 1362 1360 1359 1357 1356
1389 1389 1389 1388 1388 1388 1387 1387 1387 1387 1387 1386 1385 1384 1384 1383 1383 1383 1382 1382 1382 1382 1382 1381 1381 1381 1381 1381 1381 1380 1380 1380 1379 1379 1378 1378 1377 1377 1376 1376 1375 1375 1375 1375 1374 1374 1374 1373 1372 1371 1370 1369 1368 1367 1365 1364 1362 1361 1360 1358 1357 1355 1353
1388 1388 1387 1387 1387 1386 1386 1385 1385 1386 1386 1386 1385 1383 1382 1382 1382 1382 1382 1381 1381 1381 1381 1381 1381 1381 1381 1381 1380 1380 1380 1380 1379 1379 1378 1378 1377 1377 1376 1376 1376 1375 1375 1374 1373 1373 1372 1371 1370 1370 1369 1368 1366 1365 1363 1362 1361 1359 1358 1356 1355 1353 1352
1388 1386 1386 1386 1385 1385 1385 1384 1384 1385 1386 1386 1385 1384 1383 1382 1382 1382 1381 1381 1381 1381 1381 1381 1381 1381 1381 1381 1381 1380 1380 1380 1379 1379 1378 1378 1377 1377 1376 1376 1375 1375 1374 1373 1373 1372 1371 1370 1369 1368 1367 1366 1364 1363 1362 1360 1359 1358 1356 1354 1353 1351 1349
1387 1385 1384 1384 1384 1384 1384 1384 1384 1385 1385 1385 1384 1384 1384 1382 1382 1382 1381 1381 1381 1381 1381 1381 1381 1381 1381 1381 1381 1381 1380 1380 1379 1379 1378 1378 1377 1377 1376 1376 1375 1374 1373 1373 1372 1371 1370 1369 1368 1366 1365 1364 1362 1361 1360 1358 1357 1356 1354 1353 1351 1350 1348
1386 1385 1384 1384 1383 1383 1383 1384 1384 1384 1384 1383 1383 1383 1383 1382 1381 1381 1381 1381 1381 1381 1381 1381 1381 1381 1381 1381 1381 1381 1380 1379 1379 1378 1378 1377 1377 1376 1376 1375 1374 1373 1372 1372 1371 1370 1369 1367 1366 1365 1364 1363 1361 1360 1358 1357 1355 1354 1353 1351 1350 1348 1347
1384 1384 1383 1383 1383 1382 1381 1382 1382 1382 1382 1382 1382 1381 1381 1381 1381 1381 1381 1381 1381 1381 1381 1381 1381 1381 1381 1381 1381 1380 1380 1379 1379 1378 1378 1377 1376 1376 1375 1374 1373 1372 1371 1371 1370 1368 1367 1366 1365 1364 1363 1361 1360 1359 1358 1356 1355 1353 1351 1350 1348 1346 1345
1381 1381 1381 1381 1381 1380 1380 1380 1380 1380 1380 1380 1380 1380 1380 1380 1380 1380 1380 1380 1380 1380 1381 1381 1381 1381 1381 1380 1380 1380 1379 1379 1378 1378 1377 1377 1376 1375 1374 1373 1372 1372 1370 1369 1368 1367 1366 1365 1364 1363 1361 1360 1359 1357 1356 1355 1354 1352 1350 1348 1347 1345 1343
1379 1379 1379 1379 1378 1378 1378 1378 1378 1378 1378 1379 1379 1379 1379 1379 1379 1380 1380 1380 1380 1380 1380 1380 1380 1380 1380 1380 1380 1379 1379 1378 1378 1377 1376 1376 1375 1374 1373 1372 1371 1370 1369 1368 1367 1366 1365 1364 1363 1361 1360 1359 1357 1356 1355 1353 1352 1350 1349 1347 1345 1344 1342
Wind_Speed
35 34 33 31 31 31 31 31 30 28 25 24 25 25 25 24 24 25 26 26 26 26 25 26 26 26 26 26 26 25 24 24 24 24 24 24 25 26 27 29 31 34 36 34 29 28 26 23 21 20 20 21 21 21 21 23 24 24 25 27 27 28 29
36 35 34 34 33 32 31 30 31 31 28 25 24 25 25 25 24 25 25 25 25 25 25 25 25 26 26 25 26 26 25 25 24 24 24 23 24 25 26 27 29 32 34 33 31 29 27 25 23 22 22 23 23 23 23 23 24 25 26 27 28 28 29
35 35 34 35 36 35 34 31 29 30 29 27 25 24 25 25 24 23 23 23 24 23 23 24 25 25 25 25 25 25 25 26 26 25 25 23 22 23 23 24 26 28 30 31 30 27 25 24 25 25 25 26 27 27 27 28 29 29 30 30 30 31 31
35 35 34 35 37 38 37 34 30 28 28 27 25 24 24 23 23 21 20 19 19 19 20 22 23 23 23 23 23 24 25 26 26 26 27 26 25 25 25 24 24 25 26 27 26 24 24 24 26 28 28 29 30 30 30 31 32 32 33 33 33 34 34
35 35 34 35 37 39 39 37 32 28 28 27 24 23 23 22 21 19 16 14 15 15 16 17 19 20 20 20 21 22 23 24 25 26 27 28 28 28 28 28 28 27 27 28 27 25 25 25 26 27 28 28 29 29 29 30 31 31 32 33 33 34 34
35 34 34 35 37 39 40 39 33 28 27 26 23 22 21 20 17 14 11 10 12 13 14 15 15 16 16 17 18 18 19 20 21 23 24 25 27 28 29 29 29 29 30 30 29 28 27 27 27 27 28 28 28 29 29 30 31 31 31 32 32 32 32
33 33 34 35 37 38 40 39 33 27 25 24 22 20 18 15 14 11 9 11 13 13 13 15 16 15 13 12 12 14 15 16 17 18 20 21 22 24 25 27 27 28 29 29 29 27 26 25 25 26 27 27 27 29 30 30 31 33 34 33 34 34 33
32 32 34 35 36 37 40 39 32 26 24 22 19 17 14 11 11 10 9 12 15 15 14 15 16 18 18 15 13 12 12 13 14 14 16 17 18 19 20 22 23 24 24 25 25 24 21 20 19 18 17 18 20 23 25 24 24 28 31 30 32 34 34
31 32 34 36 36 37 39 37 30 24 21 19 16 13 11 12 13 12 12 14 15 16 17 15 14 15 18 18 17 15 14 13 13 13 14 14 15 16 16 17 18 19 19 19 20 19 18 17 15 12 11 12 12 14 18 19 19 22 25 24 26 30 30
30 33 35 36 36 37 37 34 27 22 19 16 13 11 13 15 15 13 13 15 16 17 20 20 18 16 15 15 16 16 16 16 15 15 15 15 15 15 15 15 16 16 16 16 16 15 15 14 12 10 10 12 12 13 16 16 17 20 22 21 23 27 28
33 35 35 35 35 36 35 30 24 20 16 12 10 12 15 17 15 12 12 13 13 14 16 17 19 19 18 17 16 17 17 18 18 18 18 18 18 17 17 17 17 17 17 16 15 14 13 12 11 10 10 12 14 15 17 16 16 19 22 21 22 26 27
35 35 34 34 34 33 31 27 21 17 13 9 9 13 16 15 14 13 13 13 13 14 14 16 17 18 19 19 19 19 20 21 22 23 22 21 19 18 18 18 18 19 19 18 17 16 14 13 13 12 11 13 15 17 18 18 18 19 21 21 22 25 26
36 35 34 32 31 29 27 23 20 15 11 8 9 12 15 14 12 12 12 12 15 17 19 21 20 20 20 20 20 19 19 20 22 23 23 21 19 18 17 17 18 19 20 19 19 18 15 15 16 15 14 16 17 18 20 21 22 22 22 23 24 26 28
35 32 29 27 27 26 23 20 18 13 9 8 8 11 14 13 11 13 14 16 18 20 21 22 22 21 19 17 16 15 13 14 17 18 17 16 15 15 16 17 18 19 19 19 20 19 18 18 18 18 19 20 21 22 23 23 24 25 26 28 28 28 30
30 27 25 24 23 22 19 17 15 12 9 7 7 11 14 13 13 16 16 17 18 17 16 17 17 16 13 10 9 8 7 10 14 15 14 12 12 13 14 16 17 18 18 17 17 18 19 19 19 19 20 22 24 26 25 25 25 26 28 30 32 33 33
26 24 23 22 20 18 16 14 12 10 9 7 6 11 13 13 14 14 14 15 15 14 13 13 13 12 10 9 7 5 7 12 14 14 13 12 11 11 12 14 15 16 16 16 16 17 19 19 20 21 21 23 27 29 28 27 27 28 30 31 33 35 35
24 22 21 19 17 15 14 11 9 9 8 7 7 10 12 13 13 12 13 14 13 13 12 12 11 11 11 10 8 7 10 15 16 15 14 12 11 12 12 12 12 13 14 15 16 17 18 20 21 22 22 24 27 29 28 28 29 29 30 31 33 36 36
22 20 18 16 14 12 12 9 7 8 8 6 7 10 11 12 12 10 10 12 12 11 12 11 11 12 12 11 8 7 12 18 18 16 15 14 13 12 11 10 10 11 12 13 15 16 18 19 20 21 22 23 25 27 28 27 27 27 29 29 30 33 36
19 17 14 12 11 11 10 8 6 7 6 4 6 9 10 11 10 8 8 11 11 12 12 12 12 12 12 10 7 4 9 17 19 16 13 14 14 12 10 10 10 10 11 11 13 14 16 17 19 19 20 21 23 24 25 25 25 26 27 27 28 30 33
16 13 10 9 9 9 10 8 5 4 3 1 6 9 8 9 9 7 7 10 12 13 14 13 13 14 13 11 7 4 5 11 17 17 14 15 14 10 8 8 8 8 9 9 10 11 11 13 14 15 16 17 18 19 21 22 23 24 25 25 27 28 29
12 9 7 7 8 8 9 8 4 1 3 1 6 10 9 9 10 9 9 11 13 14 15 15 15 15 14 10 7 6 6 9 14 16 14 13 11 8 6 5 5 6 6 7 7 8 8 9 10 11 12 12 13 14 15 17 18 20 21 22 25 26 28
8 5 5 6 7 8 9 7 3 1 4 4 3 9 11 11 10 9 9 10 12 14 15 15 14 13 9 6 5 7 9 11 13 12 10 10 9 7 6 5 5 5 5 5 6 6 6 7 7 8 9 9 10 11 11 13 14 16 17 19 21 23 27
5 4 6 7 7 7 7 6 3 1 3 5 4 4 5 8 8 7 8 10 12 14 14 13 11 8 5 6 8 10 10 11 10 8 7 7 7 6 6 5 5 6 6 5 5 6 6 6 6 6 6 7 8 8 9 10 11 13 14 16 18 20 23
5 6 7 7 7 7 7 7 7 5 4 6 5 2 5 11 12 12 13 14 15 13 12 10 9 7 8 9 9 9 8 7 7 6 6 6 5 5 6 6 6 6 6 6 6 5 5 6 7 7 8 9 10 10 11 11 12 13 15 16 17 18 20
6 7 7 7 7 8 8 9 10 9 8 8 12 14 15 18 18 18 19 17 14 11 10 9 7 6 7 7 7 6 5 5 5 5 5 4 4 4 5 5 5 5 5 6 6 6 7 8 9 9 10 11 12 13 14 14 14 14 15 16 17 17 17
6 6 7 7 8 8 10 10 11 11 10 9 12 17 20 21 20 20 18 14 10 8 7 6 5 4 4 4 4 4 4 3 3 3 4 4 4 4 5 5 5 6 6 7 8 9 9 10 10 11 11 12 12 14 15 15 15 16 16 17 18 17 17
6 6 7 8 8 10 11 12 12 13 12 10 10 12 15 15 15 13 11 8 6 4 4 4 4 3 3 3 3 3 2 2 2 3 4 4 4 5 5 6 6 7 8 9 9 10 10 11 11 11 10 11 12 13 15 16 18 19 19 20 21 22 21
5 6 7 8 8 10 11 12 12 11 9 8 8 9 8 7 6 6 5 4 3 3 3 3 3 2 2 2 1 1 1 2 3 3 4 4 5 5 6 7 8 9 9 9 9 9 9 10 10 10 10 11 12 13 15 16 18 19 21 22 23 24 25
4 6 8 9 9 9 9 10 9 5 3 6 9 11 10 4 1 2 3 1 1 2 2 2 2 1 1 1 1 2 2 2 2 3 4 4 5 6 6 7 8 8 8 8 8 9 9 9 10 10 11 11 12 13 15 17 18 19 21 22 23 24 25
7 9 10 9 9 7 7 7 5 5 2 4 8 10 10 6 4 3 3 1 0 1 1 1 1 0 1 1 1 2 2 2 2 3 4 4 5 6 6 6 7 7 7 8 9 9 10 10 11 11 12 12 13 13 15 16 18 19 21 22 24 25 25
5 8 10 10 9 6 4 3 5 8 6 1 4 3 6 8 6 5 2 1 1 1 1 1 1 0 0 1 0 0 0 1 2 3 4 5 5 6 6 6 6 7 7 8 9 10 10 11 11 12 13 13 14 15 15 17 18 19 20 22 23 24 25
2 3 7 10 10 8 3 2 6 8 6 6 8 7 7 10 7 4 2 1 2 2 2 2 2 1 1 1 1 1 1 1 3 4 4 5 5 6 6 6 7 7 8 9 10 10 11 11 12 13 14 14 15 16 17 17 19 19 20 21 22 22 23
7 8 9 10 10 10 7 3 6 8 8 9 10 8 7 7 5 1 1 1 2 3 2 2 1 1 1 1 1 1 1 2 4 4 5 5 6 6 7 7 8 9 9 10 10 11 12 13 13 14 14 15 16 17 18 18 19 20 20 21 22 22 23
10 11 12 12 13 14 13 10 8 9 10 10 9 8 6 5 3 2 2 2 3 3 2 1 1 1 1 1 0 1 2 3 4 4 5 5 6 6 7 8 8 9 9 10 11 12 12 13 14 15 16 17 17 18 19 19 19 20 20 21 22 23 23
11 10 10 11 12 13 13 11 9 8 8 7 7 7 5 3 3 3 3 3 2 2 2 2 2 1 0 0 1 2 2 3 3 4 4 5 6 7 7 8 8 9 9 10 12 13 13 14 15 16 17 18 19 19 20 20 20 20 21 22 22 23 24
12 10 9 9 10 10 10 9 8 8 7 6 6 6 4 3 4 4 3 3 2 2 2 2 2 1 0 0 1 2 2 3 3 4 5 6 6 7 8 8 9 9 10 11 12 13 13 14 15 16 16 17 17 18 19 20 20 21 21 21 22 23 23
Wind_Direction
327 330 332 330 328 326 324 321 317 314 308 301 297 294 290 286 281 278 274 269 264 262 262 262 260 258 257 257 258 257 255 252 249 249 251 253 255 254 252 252 251 250 254 257 256 256 257 258 257 253 246 244 241 236 233 233 235 237 239 241 241 240 238
322 325 329 330 329 327 325 321 315 314 313 307 299 294 292 289 285 281 278 276 271 266 264 263 261 258 255 253 253 253 252 252 249 247 246 247 250 253 253 254 254 253 255 258 257 258 258 257 251 243 238 237 237 236 237 239 241 243 245 246 247 246 243
317 320 325 328 329 327 325 321 314 311 311 310 304 298 293 291 290 287 283 281 278 273 270 267 264 262 258 254 252 250 248 247 245 242 242 241 240 242 245 247 248 249 252 254 255 254 251 246 240 236 235 235 238 240 242 245 247 249 250 250 250 250 249
312 315 320 325 327 327 325 321 315 309 307 307 306 301 296 292 291 290 288 287 285 280 275 272 269 267 264 259 255 251 248 245 242 240 237 237 236 236 236 236 236 238 242 246 248 246 244 241 239 239 241 243 246 249 250 251 252 253 253 253 253 253 252
306 311 316 322 325 326 324 321 315 308 306 305 304 302 298 294 293 292 290 291 291 285 278 276 275 271 268 264 259 254 249 245 242 240 238 237 237 237 238 238 237 238 240 244 247 248 247 246 246 246 248 250 253 254 255 255 255 255 256 256 255 255 255
301 307 313 319 323 324 324 320 313 307 305 304 302 301 298 298 297 291 283 286 286 279 274 273 274 273 269 265 261 255 251 247 244 241 240 239 239 239 240 241 241 242 243 246 250 252 253 253 253 254 254 255 256 258 259 258 257 256 256 256 256 255 254
298 304 311 317 321 322 323 319 310 304 303 302 302 302 299 301 301 288 276 280 277 270 268 267 265 266 267 265 260 252 247 244 242 240 240 240 240 241 241 242 243 244 245 247 250 254 256 257 258 259 259 259 258 259 260 261 261 259 257 256 256 255 253
296 303 310 317 319 320 320 317 308 301 301 301 300 299 296 301 301 286 271 273 271 268 270 268 263 263 266 269 269 261 251 244 240 238 238 238 239 240 241 242 243 244 245 247 249 251 253 255 257 258 261 261 259 259 261 262 264 264 262 260 258 257 256
297 304 311 315 317 318 318 313 304 299 300 300 297 297 300 305 302 286 271 269 268 268 270 272 270 265 264 266 267 265 264 260 255 250 247 245 243 242 242 242 242 243 244 245 246 248 251 253 255 256 257 256 252 253 257 258 258 261 265 268 265 261 259
300 306 310 314 315 315 314 308 300 297 298 297 298 303 304 301 297 283 268 263 263 263 265 269 273 273 270 268 267 267 268 269 269 267 265 262 259 257 255 253 250 248 246 246 247 250 254 256 258 257 253 248 241 242 250 253 252 256 262 268 268 264 262
303 307 311 313 313 312 309 303 296 295 293 291 297 300 294 289 284 272 259 255 255 258 260 263 268 272 275 276 276 275 275 276 277 276 274 272 270 268 267 264 262 260 257 255 254 255 257 258 256 253 250 248 244 242 247 251 252 257 262 265 268 269 269
305 308 310 310 309 308 304 298 293 292 286 284 298 298 288 283 278 270 263 260 262 267 270 269 269 271 274 278 280 280 277 274 273 273 272 270 268 267 266 266 265 264 263 261 259 258 257 256 255 254 254 256 254 249 248 248 249 253 258 261 262 265 267
306 307 307 306 304 302 298 292 290 287 276 278 299 294 283 279 274 265 261 259 261 265 267 269 270 271 272 274 277 277 273 268 264 262 262 261 260 260 260 260 260 260 260 260 259 257 255 255 258 260 261 263 263 261 256 253 252 252 254 257 258 259 262
303 302 302 302 300 297 292 286 286 281 267 278 301 287 275 275 278 277 274 269 265 264 263 263 266 268 268 270 269 267 266 264 259 257 256 255 254 252 251 250 251 252 252 252 253 254 253 254 258 261 263 264 263 264 264 262 260 258 258 259 259 260 262
300 300 301 299 295 290 286 283 283 275 257 267 297 287 278 281 287 286 278 268 264 261 257 257 261 266 270 271 267 264 269 271 267 263 261 259 255 248 243 242 242 243 245 246 247 250 251 252 254 256 260 262 261 261 263 265 266 265 265 265 264 263 264
300 301 299 294 289 285 282 279 278 268 251 248 274 285 286 290 290 282 267 257 256 250 245 249 258 271 282 282 279 288 288 278 274 272 269 267 264 255 246 243 244 246 250 252 251 251 251 251 251 253 257 262 264 264 265 267 268 269 268 269 268 268 267
301 299 294 289 285 283 281 276 273 265 248 236 255 279 289 291 287 276 258 251 248 241 238 245 258 272 281 284 294 311 295 282 281 283 282 279 272 262 255 253 255 256 258 259 258 258 259 260 261 262 264 267 271 273 274 274 273 274 273 273 273 273 271
298 294 289 286 282 279 277 272 269 262 246 240 266 282 285 282 281 276 259 248 242 239 238 243 256 266 274 285 305 321 298 288 286 287 288 285 279 276 276 272 264 258 255 257 259 260 262 264 266 268 269 271 274 277 278 279 279 279 278 277 277 277 277
295 290 286 280 272 269 270 266 266 262 242 241 284 285 278 275 276 276 261 248 244 246 245 247 256 263 273 289 308 325 305 296 291 289 292 293 292 297 300 290 277 267 261 258 258 258 259 261 262 263 264 266 269 272 275 277 278 278 278 279 278 278 279
293 290 284 271 258 257 260 256 259 257 206 201 296 289 282 280 278 273 266 256 251 252 253 256 262 266 274 285 286 275 288 293 291 295 302 302 304 311 308 294 288 285 280 276 271 267 265 265 266 266 267 267 268 270 271 273 274 275 275 276 275 275 277
292 288 277 261 250 249 252 250 246 209 150 145 301 289 276 275 275 272 269 260 255 257 260 262 267 270 272 274 268 256 251 266 284 298 306 306 313 326 324 315 311 304 301 300 296 291 287 283 280 279 279 278 277 276 275 276 276 277 277 277 276 276 275
290 277 254 248 241 241 250 252 245 135 135 129 323 300 282 275 273 270 270 267 266 270 272 271 272 273 268 249 234 243 252 266 284 300 306 309 324 338 336 335 329 319 320 319 311 308 305 298 293 290 288 288 285 282 281 281 281 282 282 282 282 283 282
274 241 225 235 239 243 254 261 266 268 157 150 107 30 311 279 272 269 277 289 290 286 282 277 273 262 234 217 231 250 264 278 293 305 308 315 331 338 336 342 339 334 337 333 326 324 317 312 313 311 310 309 304 299 296 293 290 288 288 287 286 288 289
252 232 224 234 247 253 260 266 271 283 269 222 200 184 262 269 277 286 294 301 301 293 283 275 262 239 228 237 253 267 278 287 298 308 314 323 335 338 342 348 346 344 348 343 339 340 337 341 345 343 341 339 335 331 327 324 318 309 304 301 298 296 295
244 239 235 243 255 258 261 269 273 282 288 259 237 239 255 267 279 290 297 300 297 286 276 270 261 246 244 254 265 273 281 291 300 309 317 330 343 345 348 355 357 358 360 357 358 3 4 5 4 359 355 352 347 341 336 332 328 320 314 310 305 302 300
251 252 254 258 264 265 269 277 280 284 293 279 248 244 256 269 279 287 291 293 286 274 269 265 260 251 244 249 258 266 276 289 297 310 326 343 359 360 359 7 12 12 14 12 11 13 13 11 9 5 0 355 347 340 336 334 332 328 324 320 316 313 310
263 267 270 268 270 272 273 278 284 288 291 287 267 254 258 267 276 280 284 285 278 265 255 248 243 240 238 241 251 262 277 299 316 337 350 358 5 7 6 11 14 15 16 15 13 13 12 9 7 3 357 352 347 342 341 340 338 336 334 331 327 325 322
271 280 281 274 275 278 275 278 283 285 288 295 296 293 288 285 283 281 284 290 278 250 234 235 235 234 241 249 261 283 319 345 349 356 4 7 11 12 11 11 12 12 10 8 8 9 7 2 359 358 354 353 351 347 346 345 342 340 340 338 335 332 329
305 303 296 289 288 287 285 283 275 264 298 319 309 305 309 323 10 319 306 297 248 237 223 220 229 229 239 287 332 340 345 355 5 13 21 21 20 22 19 14 11 7 3 2 3 4 3 358 355 355 355 354 354 352 350 349 347 345 344 342 340 338 335
311 291 286 293 301 303 303 290 245 177 97 331 306 312 324 341 27 12 338 337 147 217 189 185 222 277 4 336 334 340 341 357 21 35 41 39 33 29 26 20 15 10 4 5 5 2 0 358 356 355 354 353 355 357 355 352 350 349 348 346 344 342 340
312 291 288 299 308 313 320 278 192 152 123 171 234 280 313 313 335 6 4 16 67 106 141 116 109 72 16 273 258 216 110 61 54 48 45 42 39 33 28 21 17 13 9 9 7 2 360 360 359 357 355 353 356 358 357 355 352 351 349 349 347 345 343
206 284 303 313 319 323 339 161 177 168 163 210 230 235 257 279 306 358 45 54 71 104 108 87 103 132 159 178 172 138 110 72 53 44 38 36 33 29 24 19 14 12 12 9 5 1 360 1 1 359 356 355 356 357 357 355 353 351 351 350 349 348 346
232 246 268 287 298 300 298 266 216 215 224 243 256 261 259 265 284 323 112 102 97 109 99 87 128 168 156 160 158 78 64 47 41 38 31 28 25 21 18 15 11 10 9 5 360 359 360 360 359 358 357 357 358 358 357 355 352 350 350 349 348 349 347
263 258 260 264 268 273 279 278 260 251 255 257 260 263 255 245 240 198 153 129 116 118 117 131 178 191 164 152 52 42 42 33 31 29 21 17 18 14 11 10 8 6 3 358 356 357 358 356 355 355 357 359 359 358 356 354 352 349 349 349 348 348 347
277 272 267 263 261 262 268 270 265 262 262 256 250 250 243 220 201 188 167 146 139 148 165 183 195 200 183 99 35 34 28 22 21 17 12 11 8 6 5 4 3 1 358 356 355 356 355 354 353 355 356 357 357 356 354 353 352 350 349 349 346 345 345
282 279 275 269 262 256 255 254 257 262 259 243 231 231 229 210 195 187 173 165 175 186 194 196 195 197 224 357 21 17 11 10 7 4 5 4 1 1 1 360 359 1 360 357 355 354 354 354 353 354 354 353 353 352 351 350 350 349 349 348 345 342 343